Location: Iesi
(43.5167°N, 13.2333°E)
Time: 19:24:59
(UTC+00:00)

Resurs 01 Rocket - Pass Details

Date: 08 August 2020
Orbit: 634 x 644 km, 98.0° (Epoch: 24 September)

Event Time Altitude Azimuth Distance (km) Brightness Sun altitude
Exits shadow 19:27:31 12° 156° (SSE) 1,894 3.5 -11.5°
Maximum altitude 19:31:35 69° 74° (ENE) 687 1.6 -12.1°
Drops below altitude 10° 19:36:00 10° 352° (N) 2,040 4.9 -12.7°
Sets 19:38:13 0° 350° (N) 2,955 5.8 -13.1°
